COSMOS 626

Satellite information

Favourite Embed

Satellite Type and Status

PAYLOADIN ORBIT

Key statistics

Satellite COSMOS 626 at a glance.

Uptime

18984

Days in orbit

Revolutions

≈ 13.9

Per day

Orbit

LEO

Low Earth Orbit

Inclination

65.4

Latest

Satellite identification and parameters

Extended collection of information and parameters for COSMOS 626.

Object identification

Identified? True

Debris? False

Object name: COSMOS 626

International designator: 1973-108A

Object number (NORAD): 7005

Object ID (CCSDS): 7005

Country: COMMONWEALTH OF INDEPENDENT STATES (CIS)

Current information (Y/N): Y

RCS size: LARGE

Orbital parameters

Period: 103.933 minutes

Inclination: 65.4357 deg

SMA: 7322.561 km

Apoapsis: 977.551 km

Periapsis: 911.302 km

RAAN: 196.7927 deg

Eccentricy: 0.00452364

Argument of periapsis: 145.9984 deg

Mean anomaly: 214.3994 deg

Mean motion: 13.85505479 rev/day

Mean motion (dot): -0.00000041 rev/day2

B* drag term: 0.000038630694 1/REarth

Two-line elements (TLE)

Creation date: Dec. 18, 2025, 2:19 a.m.

Reference frame: TEME

Reference center: EARTH

Epoch: Dec. 17, 2025, 8:56 p.m. UTC

TLE line 0: 0 COSMOS 626

TLE line 1: 1 07005U 73108A 25351.87241168 -.00000041 00000-0 38631-4 0 9995

TLE line 2: 2 07005 65.4357 196.7927 0045236 145.9984 214.3994 13.85505479629539

Live tracking on map

Real-time ground track for satellite COSMOS 626.

In-orbit conjunctions

A list of the most updated potential collisions computed for object COSMOS 626.

Target Orbit TCA Probability of collision Miss distance Type
COSMOS 1275 DEB LEO 2025-06-17 04:54:23 0.0002028959 672.0 (m) DEBRIS
FENGYUN 1C DEB SSO 2024-11-16 09:14:15 0.0001336827 720.0 (m) DEBRIS
CZ-6A DEB LEO 2024-10-29 14:37:28 0.01103514 50.0 (m) DEBRIS
COSMOS 1275 DEB LEO 2024-08-13 10:06:27 0.0001344362 562.0 (m) DEBRIS

Associated space launch

Active radar satellite for ocean surveillance powered by a nuclear reactor.

COSMOS 626 was lifted into orbit during the mission ‘Tsiklon-2 | US-A 6’, on board a Tsiklon-2 space rocket.

The launch took place on Dec. 27, 1973, 8:19 p.m. from 90/19.

For more information about the launch, click the button.

Launch to space Tsiklon-2 | US-A 6
Tsiklon-2 | US-A 6

Agency: N/A

Status: Launch Successful

Launch date: Dec. 27, 1973, 8:19 p.m. UTC

Rocket: Tsiklon-2

Launch pad: 90/19

Location: Baikonur Cosmodrome, Republic of Kazakhstan

...

Latest news about this satellite

There are no fresh news available about this satellite. Check back as we update our databases every day.


Newsletter sign-up

Weekly statistics, charts and insights to help you stay on top of the space industry.